Location: Bruderhein
(53.8035°N, 112.9265°W)
Time: 03:04:14
(UTC+00:00)

STRAND 1 - Pass Details

Date: 10 April 2023
Orbit: 767 x 779 km, 98.4° (Epoch: 31 May)

Event Time Altitude Azimuth Distance (km) Brightness Sun altitude
Rises 11:20:58 0° 110° (ESE) 3,245 ? -12.0°
Reaches altitude 10° 11:23:58 10° 92° (E) 2,319 ? -11.6°
Maximum altitude 11:27:15 18° 51° (NE) 1,849 ? -11.2°
Drops below altitude 10° 11:30:33 10° 11° (N) 2,324 ? -10.7°
Sets 11:33:33 0° 353° (N) 3,254 ? -10.4°
